Lewiston, WA

5:04 PM PST on February 24, 2018 (GMT -0800)
Lewiston-Nez Perce County

Weather History for KLWS - October, 2012

Change the Weather History Date:

Friday, October 26, 2012

  Actual Average Record
Temperature  
Mean Temperature 41 °F 48 °F  
Max Temperature 44 °F 57 °F 78 °F (1944)
Min Temperature 37 °F 39 °F 23 °F (1954)
Degree Days  
Heating Degree Days 24 17  
Month to date heating degree days 326 320  
Since 1 July heating degree days 338 434  
Cooling Degree Days 0 0  
Month to date cooling degree days 1 1  
Year to date cooling degree days 1034 805  
Moisture  
Dew Point 36 °F    
Average Humidity 81    
Maximum Humidity 92    
Minimum Humidity 70    
Precipitation  
Precipitation 0.17 in 0.03 in 0.89 in (1926)
Month to date precipitation 1.24 0.77  
Year to date precipitation 12.50 9.97  
Snow  
Snow 0.00 in 0.00 in 0.90 in (1919)
Month to date snowfall 0.0 0.0  
Since 1 July snowfall 0.0 0.0  
Since 1 September snowfall 0.0 0.0  
Snow Depth -    
Sea Level Pressure  
Sea Level Pressure 30.25 in    
Wind  
Wind Speed 5 mph (ESE)    
Max Wind Speed 15 mph    
Max Gust Speed 17 mph    
Visibility 9 miles    
Events Rain    
T = Trace of Precipitation, MM = Missing Value Source: NWS Daily Summary

Daily Weather History Graph

Daily Weather History Graph

Search for Another Location

Airport or City:

Trip Planner

Search our weather history database for the weather conditions in past years. The results will help you decide how hot, cold, wet, or windy it might be!

Date:

Astronomy

Oct. 26, 2012 Rise Set
Actual Time 7:21 AM PDT 5:41 PM PDT
Civil Twilight 6:50 AM PDT 6:12 PM PDT
Nautical Twilight 6:15 AM PDT 6:47 PM PDT
Astronomical Twilight 5:40 AM PDT 7:22 PM PDT
Moon 4:06 PM PDT (10/26) 4:13 AM PDT (10/26)
Length of Visible Light 11h 22m
Length of Day
10h 20m
Waxing Gibbous, 91% of the Moon is Illuminated
Oct 26
Waxing Gibbous
Oct 29
Full
Nov 6
Last Quarter
Nov 13
New
Nov 20
First Quarter

Hourly Weather History & Observations

Time (PDT) Temp. Windchill Dew Point Humidity Pressure Visibility Wind Dir Wind Speed Gust Speed Precip Events Conditions
12:56 AM 39.0 °F 36.8 °F 35.1 °F 86% 30.45 in 10.0 mi East 3.5 mph - N/A   Clear
1:56 AM 37.9 °F - 34.0 °F 86% 30.43 in 10.0 mi Calm Calm - N/A   Clear
2:56 AM 37.9 °F 33.5 °F 34.0 °F 86% 30.43 in 10.0 mi SE 5.8 mph - N/A   Clear
3:56 AM 39.0 °F 31.8 °F 34.0 °F 82% 30.38 in 10.0 mi East 11.5 mph - N/A   Clear
4:56 AM 39.9 °F 35.1 °F 34.0 °F 79% 30.38 in 10.0 mi East 6.9 mph - N/A   Clear
5:56 AM 39.9 °F 32.9 °F 34.0 °F 79% 30.36 in 10.0 mi SE 11.5 mph - N/A   Clear
7:56 AM 39.0 °F 34.0 °F 33.1 °F 79% 30.34 in 10.0 mi SE 6.9 mph - N/A   Clear
8:56 AM 39.9 °F - 34.0 °F 79% 30.31 in 10.0 mi Calm Calm - N/A   Partly Cloudy
9:56 AM 43.0 °F 37.7 °F 34.0 °F 71% 30.29 in 10.0 mi SE 9.2 mph - N/A   Mostly Cloudy
10:56 AM 43.0 °F 36.8 °F 34.0 °F 71% 30.28 in 10.0 mi ESE 11.5 mph - N/A   Overcast
11:56 AM 44.1 °F 39.5 °F 35.1 °F 71% 30.27 in 10.0 mi East 8.1 mph - 0.00 in Rain Light Rain
12:32 PM 42.8 °F 38.0 °F 35.6 °F 76% 30.24 in 8.0 mi ENE 8.1 mph - 0.00 in Rain Light Rain
12:56 PM 43.0 °F 40.3 °F 37.0 °F 80% 30.25 in 8.0 mi East 4.6 mph - 0.01 in Rain Light Rain
1:15 PM 42.8 °F 39.3 °F 35.6 °F 76% 30.22 in 6.0 mi East 5.8 mph - 0.01 in Rain Light Rain
1:26 PM 42.8 °F 40.1 °F 37.4 °F 81% 30.22 in 6.0 mi East 4.6 mph - 0.02 in Rain Light Rain
1:33 PM 42.8 °F 39.3 °F 37.4 °F 81% 30.22 in 6.0 mi ESE 5.8 mph - 0.03 in Rain Light Rain
1:47 PM 42.8 °F 41.1 °F 37.4 °F 81% 30.22 in 7.0 mi East 3.5 mph - 0.03 in Rain Light Rain
1:56 PM 42.1 °F 40.2 °F 37.0 °F 82% 30.25 in 7.0 mi ESE 3.5 mph - 0.03 in Rain Light Rain
2:37 PM 41.0 °F 37.1 °F 35.6 °F 81% 30.21 in 9.0 mi East 5.8 mph - 0.04 in Rain Light Rain
2:56 PM 41.0 °F 38.0 °F 36.0 °F 82% 30.25 in 7.0 mi East 4.6 mph - 0.06 in Rain Light Rain
3:11 PM 41.0 °F - 35.6 °F 81% 30.21 in 6.0 mi Calm Calm - 0.02 in Rain Light Rain
3:56 PM 41.0 °F 37.1 °F 36.0 °F 82% 30.23 in 8.0 mi South 5.8 mph - 0.06 in Rain Light Rain
4:07 PM 39.2 °F 34.2 °F 37.4 °F 93% 30.19 in 7.0 mi South 6.9 mph - 0.01 in Rain Light Rain
4:56 PM 39.9 °F 35.8 °F 37.0 °F 89% 30.19 in 10.0 mi SE 5.8 mph - 0.01 in Rain Light Rain
5:56 PM 41.0 °F 39.0 °F 37.0 °F 86% 30.18 in 10.0 mi ENE 3.5 mph - 0.00 in   Overcast
6:56 PM 39.9 °F 36.7 °F 37.0 °F 89% 30.19 in 10.0 mi NNE 4.6 mph - N/A   Overcast
7:18 PM 41.0 °F - 37.4 °F 87% 30.16 in 10.0 mi Calm Calm - N/A   Overcast
7:56 PM 41.0 °F - 37.9 °F 89% 30.19 in 10.0 mi Calm Calm - N/A   Overcast
8:32 PM 41.0 °F 39.0 °F 35.6 °F 81% 30.16 in 10.0 mi South 3.5 mph - N/A   Overcast
8:56 PM 39.9 °F - 37.0 °F 89% 30.18 in 10.0 mi Calm Calm - N/A   Overcast
9:56 PM 39.9 °F - 37.0 °F 89% 30.17 in 10.0 mi Calm Calm - N/A   Overcast
10:56 PM 41.0 °F - 37.0 °F 86% 30.15 in 10.0 mi Calm Calm - N/A   Overcast
11:56 PM 39.9 °F - 37.9 °F 93% 30.14 in 10.0 mi Calm Calm - N/A   Overcast